#timestamp,LO_Frequency,Hit,StdDev 
1684242015.7,286046999.5,N
1684242035.6,286046998.9,N
1684242055.4,286046999.5,N
1684242075.3,286046999.5,N
1684242095.1,286046999.4,N
1684242096.0,286046999.4,N
1684242115.8,286046998.6,N
1684242135.7,286047001.1,N
1684242155.5,286046998.1,N
1684242175.3,286046998.1,N
1684242195.2,286046998.3,N
1684242215.0,286046998.4,N
1684242215.9,286046998.4,N
1684242235.8,286046998.8,N
1684242255.6,286046999.5,N
1684242275.4,286046997.3,N
1684242295.3,286046996.9,N
1684242315.1,286046999.3,N
1684242335.9,286046998.4,N
1684242355.7,286046999.5,N
1684242375.5,286046999.3,N
1684242395.4,286046999.4,N
1684242415.2,286046997.7,N
1684242435.0,286046999.2,N
1684242435.9,286046999.2,N
1684242455.8,286046996.5,Y
1684242475.6,286046999.5,P
1684242495.5,286046999.5,N
1684242515.3,286046996.9,P
1684242535.1,286046997.0,N
1684242555.9,286046996.9,N
1684242575.7,286046999.1,N
1684242595.6,286046996.6,N
1684242615.4,286046998.3,N
1684242635.2,286046998.5,N
1684242655.1,286046998.7,N
1684242656.0,286046998.7,N
1684242675.8,286046998.2,N
1684242695.7,286046996.6,Y
1684242715.5,286047001.0,P
1684242735.3,286047000.0,N
1684242755.2,286047000.2,N
1684242775.0,286046998.1,N
1684242775.9,286046998.1,N
1684242795.7,286047000.6,N
1684242815.6,286047000.7,N
1684242835.4,286046999.7,N
1684242855.3,286047000.6,N
1684242875.1,286046999.7,N
1684242895.8,286046999.8,N
1684242915.7,286047000.1,N
1684242935.5,286046999.7,N
1684242955.4,286046999.9,N
1684242975.2,286047000.4,N
1684242995.0,286046998.2,N
1684242995.9,286046998.2,N
1684243015.8,286047001.2,N
1684243035.6,286047000.4,N
1684243055.5,286047000.2,N
1684243075.3,286047002.3,N
1684243095.1,286046999.9,N
1684243115.9,286047001.1,N
1684243135.7,286046998.2,N
1684243155.5,286046998.6,N
1684243175.4,286047000.3,N
1684243195.2,286047001.1,N
1684243215.1,286046998.2,N
1684243216.0,286046998.2,N
1684243235.8,286046998.1,N
1684243255.6,286047001.0,N
1684243275.5,286047001.2,N
1684243295.3,286046998.9,N
1684243315.2,286047000.4,N
1684243335.9,286047000.3,N
1684243355.7,286046999.8,N
1684243375.6,286047000.4,N
1684243395.4,286046998.4,N
1684243415.2,286046999.3,N
1684243435.1,286046999.4,N
1684243436.0,286046999.4,N
1684243455.8,286046999.5,N
1684243475.7,286046998.5,N
1684243495.5,286047000.7,N
1684243515.3,286046998.9,N
1684243535.2,286046998.4,N
1684243555.0,286046998.5,N
1684243555.9,286046998.5,N
1684243575.8,286047001.1,N
1684243595.6,286047000.3,N
1684243615.4,286047000.6,N
1684243635.3,286047000.7,N
1684243655.1,286047002.3,N
1684243675.9,286047002.4,N
1684243695.7,286046999.8,N
1684243715.5,286047002.4,N
1684243735.4,286047002.0,N
1684243755.2,286047002.2,N
1684243775.0,286047002.7,N
1684243775.9,286047002.7,N
1684243795.8,286047002.8,N
1684243815.6,286046999.7,N
1684243835.5,286047001.9,N
1684243855.3,286046999.7,N
1684243875.1,286047000.0,N
1684243895.9,286046999.7,N
1684243915.7,286047002.0,N
1684243935.6,286047001.8,N
1684243955.4,286047001.8,N
1684243975.2,286047004.2,N
1684243995.1,286047003.8,N
1684243996.0,286047003.8,N
1684244015.8,286047004.0,N
1684244035.7,286047005.7,Y
1684244055.5,286047001.4,P
1684244075.3,286047001.9,P
1684244095.2,286047002.1,P
1684244115.0,286047002.5,Y
1684244115.9,286047002.5,P
1684244135.7,286047001.0,N
1684244155.6,286046999.9,N
1684244175.4,286047000.6,N
1684244195.3,286046999.8,N
1684244215.1,286047000.7,N
1684244216.0,286047000.7,N
1684244235.8,286047000.9,N
1684244255.7,286047000.4,N
1684244275.5,286046999.9,N
1684244295.3,286047000.4,N
1684244315.2,286047001.0,N
1684244335.0,286047002.8,Y
1684244335.9,286047002.8,P
1684244355.8,286047000.3,N
1684244375.6,286046999.7,N
1684244395.4,286047002.8,N
1684244415.3,286047002.6,N
1684244435.1,286046999.9,N
1684244455.9,286047000.4,N
1684244475.7,286047002.8,N
1684244495.5,286047002.8,N
1684244515.4,286046999.9,N
1684244535.2,286047000.0,N
1684244555.0,286047000.0,N
1684244556.0,286047000.0,N
1684244575.8,286046999.9,N
1684244595.6,286047002.3,N
1684244615.5,286047002.8,N
1684244635.3,286047002.3,N
1684244655.1,286047002.7,N
1684244675.9,286047002.0,N
1684244695.7,286047002.3,N
1684244715.6,286046999.9,N
1684244735.4,286047000.6,N
1684244755.2,286046999.7,N
1684244775.1,286047002.7,N
1684244776.0,286047002.7,N
1684244795.8,286047002.3,N
1684244815.6,286047000.4,N
1684244835.5,286047000.3,N
1684244855.3,286047000.4,N
1684244875.2,286047002.8,N
1684244895.9,286047002.7,N
1684244915.7,286046999.8,N
1684244935.6,286046999.7,N
1684244955.4,286046999.8,N
1684244975.2,286047000.5,N
1684244995.1,286047000.0,N
1684244996.0,286047000.0,N
1684245015.8,286047000.0,N
1684245035.7,286047000.8,N
1684245055.5,286047000.5,N
1684245075.3,286047000.3,N
1684245095.2,286047000.2,N
1684245115.0,286046999.7,N
1684245115.9,286046999.7,N
1684245135.8,286047002.4,N
1684245155.6,286047002.0,N
1684245175.5,286046999.7,N
1684245195.3,286047000.0,N
1684245215.1,286047000.2,N
1684245235.9,286046999.9,N
1684245255.7,286047000.3,N
1684245275.5,286047000.2,N
1684245295.4,286047002.6,N
1684245315.2,286047002.7,N
1684245335.1,286047002.3,N
1684245336.0,286047002.3,N
1684245355.8,286047002.3,N
1684245375.6,286047002.2,N
1684245395.5,286047001.5,N
1684245415.3,286047001.9,N
1684245435.1,286047001.6,N
1684245455.9,286047001.4,N
1684245475.7,286047002.1,N
1684245495.6,286047002.5,N
1684245515.4,286047004.0,Y
1684245535.2,286047001.3,P
1684245555.1,286047001.3,P
1684245556.0,286047001.3,P
1684245575.8,286047001.6,Y
1684245595.7,286047000.8,P
